SCP
-0 -0 -0 -0 -0 -0 -0 0 0 0 0 0 0 0 0 0 0 0 0 -0 -0 -0 -0 -0 -0 -0 -0 -0 -0 -0 -0 0 0 -0 -0 -0 -0 -0 -0 -0 0 -0 -0
-0 -0 -0 -0 -0 -0 -0 -0 0 0 -0 -0 -0 -0 -0 0 0 0 0 0 0 0 -0 -0 -0 -0 -0 -0 -0 -0 0 0 0 -0 -0 -0 -0 -0 -0 0 0 0 0
-0 -0 -0 -0 -0 -0 -0 -0 0 0 -0 -0 -0 -0 -0 -0 -0 -0 -0 -0 -0 0 0 0 0 0 -0 -0 -0 0 0 0 0 0 -0 -0 0 -0 -0 0 0 0 0
-0 -0 -0 -0 -0 -0 -0 -0 -0 0 -0 -0 -0 -0 -0 -0 -0 -0 -0 -0 -0 -0 -0 -0 -0 0 0 0 -0 -0 0 0 0 0 -0 -0 0 0 -0 0 0 0 0
-0 -0 -0 -0 -0 -0 -0 -0 0 0 -0 -0 -0 -0 -0 -0 -0 -0 -0 -0 -0 -0 -0 -0 -0 -0 -0 -0 -0 -0 0 0 0 0 0 0 0 0 -0 -0 0 0 0
-0 -0 -0 -0 -0 -0 -0 -0 0 0 -0 -0 -0 -0 -0 -0 -0 -0 -0 -0 -0 -0 -0 -0 -0 -0 -0 -0 0 0 0 0 0 0 0 0 0 1 0 -0 0 0 0
-1 -0 -0 -0 -0 -0 0 0 0 0 -0 -0 -0 0 -0 -0 -0 -0 -0 -0 -0 -0 -0 -0 -0 -0 -0 0 0 0 0 0 0 0 0 0 0 0 0 0 0 0 0
-1 -0 -0 -0 -0 -0 -0 0 0 0 -0 -0 0 0 0 0 0 0 0 0 0 0 -0 -0 -0 -0 -0 0 0 0 0 0 0 0 0 0 1 0 0 0 0 0 0
-0 -0 -0 -0 -0 -0 -0 0 0 0 -0 0 0 0 0 0 0 0 0 0 0 0 -0 0 0 -0 -0 0 0 0 -0 0 0 0 0 0 1 1 0 0 0 0 0
-0 -0 -0 -0 -0 -0 0 0 0 0 0 0 0 0 -0 -0 -0 0 0 0 0 0 -0 0 0 0 0 0 0 0 0 0 0 0 0 0 0 0 0 0 0 0 0
0 0 -0 -0 -0 -0 0 0 0 0 0 0 -0 -0 0 0 0 0 0 0 0 0 0 0 0 0 0 0 0 0 0 0 0 0 -0 0 0 0 0 0 0 0 0
0 0 -0 -0 0 0 0 0 0 0 0 0 -0 -0 0 0 0 0 0 0 0 0 0 0 0 0 0 0 0 0 0 0 0 0 0 1 0 0 0 0 0 0 0
0 0 0 0 0 0 0 1 1 0 0 0 0 0 0 0 0 0 0 0 0 0 0 0 0 0 0 0 0 0 0 0 0 0 0 1 0 0 0 0 0 0 0
0 1 0 1 1 1 0 0 1 0 0 0 -0 -0 1 1 1 1 0 0 0 0 0 0 0 0 0 0 0 0 0 0 0 0 0 0 0 0 0 0 0 0 0
0 0 1 2 3 2 2 1 1 1 0 -0 -0 1 1 1 1 0 0 0 0 0 0 0 0 0 0 0 0 0 0 0 0 0 0 0 0 0 0 0 0 0 0
1 1 1 1 3 2 2 2 1 1 1 1 1 1 1 0 1 0 0 0 0 0 0 0 0 0 0 0 0 0 0 0 0 0 0 0 1 1 0 0 0 0 0
1 1 3 2 3 4 2 2 1 1 1 1 1 1 1 0 0 0 0 0 0 0 0 0 0 0 0 0 0 0 0 0 0 0 0 0 0 1 0 0 0 0 0
1 3 2 1 3 2 2 2 1 2 2 1 1 1 1 0 0 0 0 0 0 0 0 0 0 0 0 0 0 0 0 0 0 0 0 0 0 0 0 0 0 0 0
1 2 2 1 2 2 2 1 1 2 1 1 1 0 0 0 0 1 0 0 0 0 0 0 0 0 0 0 0 0 0 0 0 0 0 0 0 0 0 0 0 0 0
1 2 2 2 2 2 2 2 1 2 2 0 0 -0 0 1 0 1 0 0 1 0 0 0 0 0 0 0 0 0 0 0 0 0 0 0 0 0 0 0 0 0 0
1 1 2 2 3 2 1 1 1 3 2 1 0 0 1 1 1 1 1 1 0 0 0 0 0 0 0 0 0 0 0 0 0 0 0 0 0 0 0 0 0 0 0
1 1 2 1 2 2 0 1 3 2 2 2 2 2 1 1 1 1 2 1 1 0 0 0 0 0 0 0 0 0 0 0 0 0 0 0 0 0 0 0 0 0 0
2 1 1 2 1 2 1 1 3 3 3 3 3 2 3 1 1 1 1 1 0 0 0 0 0 0 0 0 0 0 0 0 0 0 0 0 0 0 0 0 0 0 0
2 1 1 2 2 1 3 2 3 4 2 3 3 3 2 2 2 1 2 0 0 0 0 0 0 0 0 0 0 0 0 0 0 0 0 0 0 0 0 0 0 0 0
0 -0 2 4 4 5 5 3 3 3 3 3 3 4 2 3 2 1 1 0 0 0 0 0 0 0 0 0 0 0 0 0 0 0 0 0 0 0 0 0 0 0 0
0 -0 4 6 6 4 3 2 3 3 4 4 3 2 4 2 1 2 0 1 0 0 0 0 0 0 0 0 0 0 0 0 0 0 0 0 0 0 0 0 0 0 0
Wind_Speed_500mb
28 30 26 25 23 22 21 19 18 18 18 20 21 22 23 24 25 26 26 27 28 28 28 28 27 26 24 23 21 20 19 18 17 18 15 18 22 23 22 23 22 23 15
28 28 26 23 21 20 18 17 16 16 17 17 18 19 21 22 23 25 26 27 28 29 29 28 28 27 26 25 24 22 22 19 16 10 9 10 10 17 19 16 14 16 16
22 27 25 22 20 19 18 16 14 14 14 15 15 15 17 18 21 22 25 27 29 30 30 29 28 28 27 26 26 24 23 21 18 9 5 10 11 5 13 14 12 12 14
19 27 25 21 18 16 15 13 11 10 10 11 12 15 17 18 21 21 23 26 29 31 32 33 33 31 30 28 27 26 24 22 19 11 3 12 29 5 9 12 10 9 10
17 24 21 19 17 15 14 11 8 6 7 8 10 12 15 17 20 21 22 26 28 31 33 35 36 36 35 33 30 27 26 24 20 8 6 18 9 10 16 16 13 7 10
32 28 14 17 16 14 12 10 7 5 5 7 8 11 12 13 15 17 20 24 29 33 35 36 37 39 39 37 35 33 33 30 22 17 33 29 31 17 23 21 21 14 9
37 19 15 18 16 14 12 9 6 4 3 5 5 7 10 11 14 16 17 21 28 30 33 36 38 41 41 40 39 38 37 37 33 15 24 49 16 17 12 22 24 22 17
22 9 18 17 15 13 11 7 6 4 2 2 5 8 8 10 15 19 20 20 33 35 36 37 35 39 42 44 43 33 33 43 37 29 7 38 18 29 29 29 27 24 22
19 14 10 17 14 11 8 7 7 8 5 6 8 8 7 9 20 21 26 26 42 41 45 45 37 38 43 51 26 22 29 44 21 14 11 32 29 24 22 25 33 27 27
20 19 4 4 7 8 12 7 11 11 9 6 5 5 9 8 18 15 23 32 34 35 45 38 36 39 46 45 26 30 25 22 26 36 34 25 22 22 27 32 35 27 24
18 19 20 16 15 9 23 22 10 14 12 10 8 4 7 10 15 17 27 29 28 42 39 41 44 49 45 38 41 48 22 22 31 36 37 40 37 36 36 37 37 35 28
25 17 15 7 16 5 13 23 27 11 11 23 9 1 8 3 5 12 18 30 28 36 37 35 43 44 44 42 36 43 37 36 45 31 32 49 46 42 40 43 47 41 37
24 19 14 24 24 19 15 16 21 23 33 39 23 11 10 8 10 9 15 18 29 26 33 38 39 37 42 48 52 40 43 46 41 36 42 48 44 33 33 40 44 42 32
19 17 10 18 18 15 20 22 31 37 30 30 14 10 7 2 8 19 23 27 27 36 33 37 56 45 42 43 45 39 43 43 44 42 43 41 35 35 42 43 45 39 36
9 18 12 14 13 23 22 23 24 27 28 25 9 9 10 21 23 25 26 28 29 28 33 44 41 40 46 45 41 41 44 45 51 50 49 55 56 51 50 45 38 40 39
12 8 2 4 15 15 22 28 30 15 21 20 13 16 23 30 36 28 26 24 29 34 41 49 40 41 45 45 46 48 50 52 48 46 48 48 47 47 43 34 41 40 37
16 14 10 12 14 27 23 26 11 4 14 13 16 24 26 34 31 34 33 25 28 41 54 41 40 44 42 42 46 51 49 46 49 48 44 57 49 43 36 40 37 36 32
15 21 14 11 16 17 10 15 9 13 21 24 30 32 30 20 12 31 40 41 40 51 43 40 43 42 48 56 46 42 37 40 43 48 49 32 42 43 33 34 30 32 40
16 11 10 11 10 15 14 10 13 16 17 19 28 35 33 25 30 27 43 36 45 42 40 43 43 51 65 50 49 47 45 34 37 35 44 45 36 41 46 44 40 43 45
20 19 11 3 9 15 17 19 10 17 23 19 28 22 42 26 35 31 43 41 39 45 41 46 55 57 47 42 45 50 53 49 39 47 41 36 37 34 31 30 41 48 45
21 20 18 14 15 9 5 9 20 15 20 20 25 6 27 35 33 43 44 35 52 45 43 52 53 47 46 50 62 53 52 45 45 41 38 43 40 35 25 30 35 42 36
17 14 13 13 12 9 3 13 20 27 21 23 22 22 28 27 30 30 39 49 38 48 54 42 39 52 57 52 42 53 40 40 27 5 11 28 29 26 30 37 47 52 44
30 17 15 10 11 10 8 17 19 24 22 24 7 28 17 38 46 40 45 40 42 51 47 45 46 40 35 34 25 32 20 13 37 20 12 14 12 21 27 25 31 35 39
27 32 16 8 8 4 13 8 16 24 22 20 27 27 40 44 33 28 35 40 49 52 49 43 36 43 42 44 35 34 32 40 26 39 32 21 24 16 24 26 31 32 23
15 15 18 8 12 17 15 14 17 14 24 31 27 33 37 22 25 43 39 47 52 55 54 42 45 44 40 40 38 40 45 37 31 29 43 29 25 20 17 22 30 26 21
30 14 18 15 13 11 17 22 26 26 30 30 29 40 27 36 40 40 46 51 52 59 43 46 44 47 43 40 37 39 42 40 36 29 31 35 32 34 31 23 31 29 20
Wind_Direction_500mb
139 139 134 130 127 118 111 106 98 87 76 67 60 56 53 50 49 46 44 42 39 36 32 28 23 19 14 8 1 358 355 355 3 20 31 33 41 36 35 43 47 35 55
144 142 138 134 129 122 117 111 105 94 81 68 60 54 52 51 52 51 50 49 45 39 34 30 25 19 12 2 354 349 346 345 348 6 3 357 39 43 24 30 43 46 52
146 145 144 142 137 135 128 117 103 88 77 70 66 64 63 61 54 53 51 46 39 34 29 26 22 16 11 5 356 347 339 337 339 344 283 321 283 29 39 359 26 44 59
153 156 151 150 142 137 127 118 106 91 82 75 71 71 70 66 60 57 54 49 40 34 27 20 13 8 3 359 355 351 345 336 332 332 272 345 216 277 7 332 344 19 45
132 149 149 155 152 147 140 130 125 116 101 96 90 84 66 65 60 58 56 49 40 32 24 18 12 6 358 353 351 349 346 342 332 313 4 355 239 282 306 313 304 327 8
144 179 177 168 164 164 159 162 159 154 135 114 93 76 73 72 68 63 53 42 31 22 15 10 8 2 356 348 343 339 334 329 327 281 325 289 268 252 272 296 299 295 292
154 178 188 180 180 181 181 184 189 183 130 97 82 96 96 85 68 52 35 31 20 11 5 359 356 353 352 345 341 336 333 329 323 308 318 301 305 220 257 290 297 291 276
158 196 176 182 191 195 202 203 213 197 144 141 157 142 119 79 41 25 9 14 5 357 351 346 343 343 341 340 335 338 351 347 326 313 292 291 275 276 273 283 288 285 283
140 186 235 193 196 209 225 239 240 214 198 161 169 160 109 44 26 13 1 357 355 353 352 345 343 346 343 344 344 341 353 346 346 330 350 271 270 276 293 286 294 282 274
160 155 191 204 193 250 211 229 259 229 214 200 190 140 74 60 27 357 345 344 345 350 354 353 348 345 338 338 331 323 328 353 347 332 304 275 283 286 286 288 284 287 280
160 166 186 224 222 299 233 269 286 255 222 232 235 158 44 359 19 5 328 329 347 350 350 346 342 336 333 331 331 327 294 323 326 299 305 297 291 293 293 292 290 279 285
157 171 181 174 176 203 242 254 287 271 221 258 201 292 60 278 319 325 346 339 351 341 346 338 330 327 328 324 319 309 315 306 302 297 285 281 279 285 288 286 290 284 278
144 157 187 214 210 212 240 285 253 242 303 339 233 214 215 305 34 299 314 302 322 321 311 318 316 309 286 290 293 296 293 291 287 283 287 274 274 280 292 293 297 284 277
132 161 202 228 268 257 240 260 298 315 311 338 173 165 109 48 295 284 298 284 314 307 312 310 322 311 307 294 290 289 290 286 281 279 278 273 275 299 305 297 297 286 275
162 154 196 203 251 284 279 282 282 312 339 22 62 180 306 336 322 299 305 331 301 318 311 297 322 312 301 309 304 294 285 282 276 274 266 279 287 291 286 285 288 295 281
135 134 146 290 256 288 293 283 292 306 295 330 285 301 301 320 322 313 309 301 329 311 292 314 315 312 307 308 307 299 293 285 279 278 271 270 266 280 275 277 292 291 283
180 162 196 222 224 264 256 290 313 267 270 266 286 272 286 314 314 313 328 318 317 299 309 327 310 306 307 290 287 282 281 287 285 278 279 263 263 271 282 288 293 283 282
161 182 172 157 244 292 246 268 221 271 282 286 280 282 310 322 316 307 303 318 302 310 315 317 317 307 294 305 314 303 299 294 286 286 276 278 263 248 269 286 284 279 282
168 209 201 180 196 261 273 265 269 274 309 327 309 324 307 242 295 287 292 300 304 313 314 314 299 298 309 307 305 302 288 294 276 277 278 273 281 274 266 265 272 277 282
169 175 188 213 219 244 222 284 284 256 270 330 335 263 287 289 307 281 291 317 303 305 312 301 301 308 309 305 303 297 299 286 277 273 276 274 273 267 261 271 271 280 285
170 173 179 209 231 279 209 296 305 293 315 325 340 288 285 305 286 302 317 296 304 307 294 303 310 304 299 299 300 301 298 293 278 271 273 272 265 263 257 263 271 271 277
185 173 188 192 238 280 172 304 268 298 323 328 309 289 319 296 301 301 289 295 307 291 298 313 295 302 301 300 301 301 309 305 295 328 278 254 257 273 270 275 281 275 274
179 188 188 212 216 242 222 238 294 310 320 323 280 322 294 298 301 312 300 313 292 294 305 294 301 300 304 307 306 296 310 296 306 280 329 317 296 290 278 278 291 283 269
214 161 179 206 234 263 287 288 275 293 311 292 303 285 287 303 317 310 310 290 290 292 309 307 296 300 294 292 294 292 291 281 293 301 282 310 301 277 305 296 299 287 280
248 5 197 255 231 215 260 296 294 288 258 269 281 286 310 326 283 306 295 289 289 299 310 296 305 302 294 296 292 294 294 296 284 270 284 288 296 275 320 330 327 310 283
262 155 195 247 250 264 302 307 306 295 286 293 310 318 312 288 311 303 293 294 297 308 294 299 303 300 297 293 291 290 291 279 281 271 280 282 280 289 303 305 327 328 291
Wind_Speed_850mb
28 30 26 25 23 22 21 19 18 18 18 20 21 22 23 24 25 26 26 27 28 28 28 28 27 26 24 23 21 20 19 18 17 18 15 18 22 23 22 23 22 23 15
28 28 26 23 21 20 18 17 16 16 17 17 18 19 21 22 23 25 26 27 28 29 29 28 28 27 26 25 24 22 22 19 16 10 9 10 10 17 19 16 14 16 16
22 27 25 22 20 19 18 16 14 14 14 15 15 15 17 18 21 22 25 27 29 30 30 29 28 28 27 26 26 24 23 21 18 9 5 10 11 5 13 14 12 12 14
19 27 25 21 18 16 15 13 11 10 10 11 12 15 17 18 21 21 23 26 29 31 32 33 33 31 30 28 27 26 24 22 19 11 3 12 29 5 9 12 10 9 10
17 24 21 19 17 15 14 11 8 6 7 8 10 12 15 17 20 21 22 26 28 31 33 35 36 36 35 33 30 27 26 24 20 8 6 18 9 10 16 16 13 7 10
32 28 14 17 16 14 12 10 7 5 5 7 8 11 12 13 15 17 20 24 29 33 35 36 37 39 39 37 35 33 33 30 22 17 33 29 31 17 23 21 21 14 9
37 19 15 18 16 14 12 9 6 4 3 5 5 7 10 11 14 16 17 21 28 30 33 36 38 41 41 40 39 38 37 37 33 15 24 49 16 17 12 22 24 22 17
22 9 18 17 15 13 11 7 6 4 2 2 5 8 8 10 15 19 20 20 33 35 36 37 35 39 42 44 43 33 33 43 37 29 7 38 18 29 29 29 27 24 22
19 14 10 17 14 11 8 7 7 8 5 6 8 8 7 9 20 21 26 26 42 41 45 45 37 38 43 51 26 22 29 44 21 14 11 32 29 24 22 25 33 27 27
20 19 4 4 7 8 12 7 11 11 9 6 5 5 9 8 18 15 23 32 34 35 45 38 36 39 46 45 26 30 25 22 26 36 34 25 22 22 27 32 35 27 24
18 19 20 16 15 9 23 22 10 14 12 10 8 4 7 10 15 17 27 29 28 42 39 41 44 49 45 38 41 48 22 22 31 36 37 40 37 36 36 37 37 35 28
25 17 15 7 16 5 13 23 27 11 11 23 9 1 8 3 5 12 18 30 28 36 37 35 43 44 44 42 36 43 37 36 45 31 32 49 46 42 40 43 47 41 37
24 19 14 24 24 19 15 16 21 23 33 39 23 11 10 8 10 9 15 18 29 26 33 38 39 37 42 48 52 40 43 46 41 36 42 48 44 33 33 40 44 42 32
19 17 10 18 18 15 20 22 31 37 30 30 14 10 7 2 8 19 23 27 27 36 33 37 56 45 42 43 45 39 43 43 44 42 43 41 35 35 42 43 45 39 36
9 18 12 14 13 23 22 23 24 27 28 25 9 9 10 21 23 25 26 28 29 28 33 44 41 40 46 45 41 41 44 45 51 50 49 55 56 51 50 45 38 40 39
12 8 2 4 15 15 22 28 30 15 21 20 13 16 23 30 36 28 26 24 29 34 41 49 40 41 45 45 46 48 50 52 48 46 48 48 47 47 43 34 41 40 37
16 14 10 12 14 27 23 26 11 4 14 13 16 24 26 34 31 34 33 25 28 41 54 41 40 44 42 42 46 51 49 46 49 48 44 57 49 43 36 40 37 36 32
15 21 14 11 16 17 10 15 9 13 21 24 30 32 30 20 12 31 40 41 40 51 43 40 43 42 48 56 46 42 37 40 43 48 49 32 42 43 33 34 30 32 40
16 11 10 11 10 15 14 10 13 16 17 19 28 35 33 25 30 27 43 36 45 42 40 43 43 51 65 50 49 47 45 34 37 35 44 45 36 41 46 44 40 43 45
20 19 11 3 9 15 17 19 10 17 23 19 28 22 42 26 35 31 43 41 39 45 41 46 55 57 47 42 45 50 53 49 39 47 41 36 37 34 31 30 41 48 45
21 20 18 14 15 9 5 9 20 15 20 20 25 6 27 35 33 43 44 35 52 45 43 52 53 47 46 50 62 53 52 45 45 41 38 43 40 35 25 30 35 42 36
17 14 13 13 12 9 3 13 20 27 21 23 22 22 28 27 30 30 39 49 38 48 54 42 39 52 57 52 42 53 40 40 27 5 11 28 29 26 30 37 47 52 44
30 17 15 10 11 10 8 17 19 24 22 24 7 28 17 38 46 40 45 40 42 51 47 45 46 40 35 34 25 32 20 13 37 20 12 14 12 21 27 25 31 35 39
27 32 16 8 8 4 13 8 16 24 22 20 27 27 40 44 33 28 35 40 49 52 49 43 36 43 42 44 35 34 32 40 26 39 32 21 24 16 24 26 31 32 23
15 15 18 8 12 17 15 14 17 14 24 31 27 33 37 22 25 43 39 47 52 55 54 42 45 44 40 40 38 40 45 37 31 29 43 29 25 20 17 22 30 26 21
30 14 18 15 13 11 17 22 26 26 30 30 29 40 27 36 40 40 46 51 52 59 43 46 44 47 43 40 37 39 42 40 36 29 31 35 32 34 31 23 31 29 20
Wind_Direction_850mb
139 139 134 130 127 118 111 106 98 87 76 67 60 56 53 50 49 46 44 42 39 36 32 28 23 19 14 8 1 358 355 355 3 20 31 33 41 36 35 43 47 35 55
144 142 138 134 129 122 117 111 105 94 81 68 60 54 52 51 52 51 50 49 45 39 34 30 25 19 12 2 354 349 346 345 348 6 3 357 39 43 24 30 43 46 52
146 145 144 142 137 135 128 117 103 88 77 70 66 64 63 61 54 53 51 46 39 34 29 26 22 16 11 5 356 347 339 337 339 344 283 321 283 29 39 359 26 44 59
153 156 151 150 142 137 127 118 106 91 82 75 71 71 70 66 60 57 54 49 40 34 27 20 13 8 3 359 355 351 345 336 332 332 272 345 216 277 7 332 344 19 45
132 149 149 155 152 147 140 130 125 116 101 96 90 84 66 65 60 58 56 49 40 32 24 18 12 6 358 353 351 349 346 342 332 313 4 355 239 282 306 313 304 327 8
144 179 177 168 164 164 159 162 159 154 135 114 93 76 73 72 68 63 53 42 31 22 15 10 8 2 356 348 343 339 334 329 327 281 325 289 268 252 272 296 299 295 292
154 178 188 180 180 181 181 184 189 183 130 97 82 96 96 85 68 52 35 31 20 11 5 359 356 353 352 345 341 336 333 329 323 308 318 301 305 220 257 290 297 291 276
158 196 176 182 191 195 202 203 213 197 144 141 157 142 119 79 41 25 9 14 5 357 351 346 343 343 341 340 335 338 351 347 326 313 292 291 275 276 273 283 288 285 283
140 186 235 193 196 209 225 239 240 214 198 161 169 160 109 44 26 13 1 357 355 353 352 345 343 346 343 344 344 341 353 346 346 330 350 271 270 276 293 286 294 282 274
160 155 191 204 193 250 211 229 259 229 214 200 190 140 74 60 27 357 345 344 345 350 354 353 348 345 338 338 331 323 328 353 347 332 304 275 283 286 286 288 284 287 280
160 166 186 224 222 299 233 269 286 255 222 232 235 158 44 359 19 5 328 329 347 350 350 346 342 336 333 331 331 327 294 323 326 299 305 297 291 293 293 292 290 279 285
157 171 181 174 176 203 242 254 287 271 221 258 201 292 60 278 319 325 346 339 351 341 346 338 330 327 328 324 319 309 315 306 302 297 285 281 279 285 288 286 290 284 278
144 157 187 214 210 212 240 285 253 242 303 339 233 214 215 305 34 299 314 302 322 321 311 318 316 309 286 290 293 296 293 291 287 283 287 274 274 280 292 293 297 284 277
132 161 202 228 268 257 240 260 298 315 311 338 173 165 109 48 295 284 298 284 314 307 312 310 322 311 307 294 290 289 290 286 281 279 278 273 275 299 305 297 297 286 275
162 154 196 203 251 284 279 282 282 312 339 22 62 180 306 336 322 299 305 331 301 318 311 297 322 312 301 309 304 294 285 282 276 274 266 279 287 291 286 285 288 295 281
135 134 146 290 256 288 293 283 292 306 295 330 285 301 301 320 322 313 309 301 329 311 292 314 315 312 307 308 307 299 293 285 279 278 271 270 266 280 275 277 292 291 283
180 162 196 222 224 264 256 290 313 267 270 266 286 272 286 314 314 313 328 318 317 299 309 327 310 306 307 290 287 282 281 287 285 278 279 263 263 271 282 288 293 283 282
161 182 172 157 244 292 246 268 221 271 282 286 280 282 310 322 316 307 303 318 302 310 315 317 317 307 294 305 314 303 299 294 286 286 276 278 263 248 269 286 284 279 282
168 209 201 180 196 261 273 265 269 274 309 327 309 324 307 242 295 287 292 300 304 313 314 314 299 298 309 307 305 302 288 294 276 277 278 273 281 274 266 265 272 277 282
169 175 188 213 219 244 222 284 284 256 270 330 335 263 287 289 307 281 291 317 303 305 312 301 301 308 309 305 303 297 299 286 277 273 276 274 273 267 261 271 271 280 285
170 173 179 209 231 279 209 296 305 293 315 325 340 288 285 305 286 302 317 296 304 307 294 303 310 304 299 299 300 301 298 293 278 271 273 272 265 263 257 263 271 271 277
185 173 188 192 238 280 172 304 268 298 323 328 309 289 319 296 301 301 289 295 307 291 298 313 295 302 301 300 301 301 309 305 295 328 278 254 257 273 270 275 281 275 274
179 188 188 212 216 242 222 238 294 310 320 323 280 322 294 298 301 312 300 313 292 294 305 294 301 300 304 307 306 296 310 296 306 280 329 317 296 290 278 278 291 283 269
214 161 179 206 234 263 287 288 275 293 311 292 303 285 287 303 317 310 310 290 290 292 309 307 296 300 294 292 294 292 291 281 293 301 282 310 301 277 305 296 299 287 280
248 5 197 255 231 215 260 296 294 288 258 269 281 286 310 326 283 306 295 289 289 299 310 296 305 302 294 296 292 294 294 296 284 270 284 288 296 275 320 330 327 310 283
262 155 195 247 250 264 302 307 306 295 286 293 310 318 312 288 311 303 293 294 297 308 294 299 303 300 297 293 291 290 291 279 281 271 280 282 280 289 303 305 327 328 291